Location: Killam
(52.7910°N, 111.8608°W)
Time: 05:20:46
(UTC+00:00)

Vanguard 3 - Pass Details

Date: 24 February 2026
Orbit: 507 x 3205 km, 33.4° (Epoch: 14 March)

Event Time Altitude Azimuth Distance (km) Brightness Sun altitude
Rises 20:10:06 0° 209° (SSW) 6,925 13.0 27.7°
Reaches altitude 10° 20:17:10 10° 194° (SSW) 5,550 13.2 27.5°
Maximum altitude 20:26:14 18° 159° (SSE) 4,219 11.9 27.2°
Drops below altitude 10° 20:33:18 10° 122° (ESE) 4,179 11.1 27.0°
Sets 20:37:27 0° 105° (ESE) 4,707 11.1 26.8°
